星链-32253 (STARLINK-32253)

导读 | 星芒AI

STARLINK-32253 是 SpaceX Starlink 项目中的一颗低轨通信卫星,属于第 6 批次发射的星链卫星群。该卫星运行在约 550 公里的轨道高度,旨在为全球用户提供高速互联网服务。作为星链网络的一部分,它通过 KU/Ka 频段与地面终端通信,支持宽带接入。该卫星具备自主避障能力,有助于降低与空间碎片的碰撞风险。其部署进一步增强了 Starlink 在全球范围内的覆盖能力与网络稳定性。

基本信息
目录编号:
60733
目录名称:
STARLINK-32253
国际标识:
2024-152P
轨道中心:
EARTH
卫星名称:
星链-32253 (STARLINK-32253)
卫星全名:
星链-32253 (STARLINK-32253)
卫星状态:
在轨 (已飞行432 天)
发射日期:
2024-08-28 UTC
国别 :
美国 (US)
星等 :
--
轨道信息
数据来源 国际轨道数据
星历时间: 2025-11-02T14:31:53+0800
1天前
查看轨道信息
半长轴: 6853.376km
偏心率: 0.0001131
轨道倾角: 53.160°
近地点辐角 91.606°
升交点赤经 140.190°
平近点角 268.507°
近地点: 474.465km
远地点: 476.017km
周期: 94.106分钟
每日圈数: 15.301923
详细信息
卫星平台:
Starlink v2.0 mini
运营商:
太空探索技术公司
运营商所在国:
美国
制造商(研发单位):
太空探索技术公司
制造商所在国:
美国
使用方式:
暂无
卫星简介
星链(Starlink)计划是由太空探索技术公司(SpaceX)提出的一个巨型低轨卫星互联网星座项目,计划在2019年至2024年间在太空搭建由约1.2万颗卫星组成的“星链”网络,其中1584颗将部署在地球上空550千米处的近地轨道,并从2020年开始工作。该卫星仍在工作。
2D轨道图
3D轨道图
轨道高度分析图
轨道倾角分析图
轨道综合分析图
查看轨道综合分析图